EW7906 Weather Reports


time (UTC)temp
C
wind
direction
speed
KPH
gust
KPH
rain 1hr
cm
rain 24hr
cm
rain mn
cm
humidity
%
barometer
mb
20260508000042 36 33 0.0 1.6 0.00 0.00 0.00 100 1014.5
20260507235755 35 33 0.0 4.8 0.00 0.00 0.00 100 1014.5
20260507235026 36 33 0.0 6.4 0.00 0.00 0.00 100 1014.9
20260507234520 36 7 0.0 6.4 0.00 0.00 0.00 100 1015.1
20260507234005 35 73 0.0 8.0 0.00 0.00 0.00 100 1014.8
20260507233506 36 59 0.0 8.0 0.00 0.00 0.00 100 1014.8
20260507232958 36 35 0.0 6.4 0.00 0.00 0.00 100 1014.8
20260507232445 36 320 0.0 6.4 0.00 0.00 0.00 100 1015.0
20260507231944 36 320 0.0 8.0 0.00 0.00 0.00 100 1015.1
20260507231436 36 33 0.0 9.7 0.00 0.00 0.00 100 1014.8
20260507230925 36 82 6.4 9.7 0.00 0.00 0.00 100 1014.7
20260507230413 36 334 3.2 9.7 0.00 0.00 0.00 100 1014.7
20260507225912 36 28 0.0 9.7 0.00 0.00 0.00 100 1015.0
20260507225408 36 46 4.8 14.5 0.00 0.00 0.00 100 1014.9
20260507224906 36 68 9.7 14.5 0.00 0.00 0.00 100 1014.9
20260507224406 36 18 0.0 16.1 0.00 0.00 0.00 100 1014.8
20260507223853 36 19 4.8 16.1 0.00 0.00 0.00 100 1014.8
20260507223347 36 59 0.0 9.7 0.00 0.00 0.00 100 1015.1
20260507222845 36 292 0.0 9.7 0.00 0.00 0.00 100 1015.2
20260507222345 36 303 4.8 17.7 0.00 0.00 0.00 100 1015.3
20260507221843 36 29 0.0 17.7 0.00 0.00 0.00 100 1015.3
20260507221343 36 357 3.2 16.1 0.00 0.00 0.00 100 1015.2
20260507220843 36 1 8.0 17.7 0.00 0.00 0.00 100 1015.3
20260507220347 36 333 11.3 17.7 0.00 0.00 0.00 100 1015.2
20260507220343 36 358 9.7 17.7 0.00 0.00 0.00 100 1015.3
20260507215347 36 5 6.4 20.9 0.00 0.00 0.00 100 1015.3
20260507215343 36 15 3.2 12.9 0.00 0.00 0.00 100 1015.3
20260507214328 36 1 9.7 20.9 0.00 0.00 0.00 100 1015.7
20260507213826 36 338 4.8 14.5 0.00 0.00 0.00 100 1015.8
20260507213327 36 8 0.0 20.9 0.00 0.00 0.00 100 1015.8
20260507212827 36 310 3.2 20.9 0.00 0.00 0.00 100 1015.9
20260507212327 36 49 3.2 12.9 0.00 0.00 0.00 100 1015.7
20260507211826 36 309 6.4 12.9 0.00 0.00 0.00 100 1015.6
20260507211326 36 56 8.0 12.9 0.00 0.00 0.00 100 1015.3
20260507211057 36 334 3.2 14.5 0.00 0.00 0.00 100 1015.3
20260507210324 36 123 6.4 14.5 0.00 0.00 0.00 100 1015.2
20260507205821 36 7 8.0 12.9 0.00 0.00 0.00 100 1015.6
20260507205321 35 18 6.4 11.3 0.00 0.00 0.00 100 1015.6
20260507204821 35 11 6.4 11.3 0.00 0.00 0.00 100 1015.7
20260507204312 35 358 1.6 11.3 0.00 0.00 0.00 100 1015.9
20260507204033 36 64 0.0 12.9 0.00 0.00 0.00 100 1016.1
20260507203302 36 270 4.8 12.9 0.00 0.00 0.00 100 1016.1
20260507202803 35 317 1.6 11.3 0.00 0.00 0.00 100 1016.2
20260507202532 35 358 1.6 16.1 0.00 0.00 0.00 100 1016.4
20260507201759 35 347 3.2 16.1 0.00 0.00 0.00 100 1016.3
20260507201530 35 43 0.0 11.3 0.00 0.00 0.00 100 1016.5
20260507200759 36 333 0.0 11.3 0.00 0.00 0.00 100 1016.5
20260507200259 36 26 1.6 11.3 0.00 0.00 0.00 100 1016.4
20260507195750 36 90 4.8 14.5 0.00 0.00 0.00 100 1016.5
20260507195251 35 74 6.4 14.5 0.00 0.00 0.00 100 1016.3
20260507194750 35 334 8.0 14.5 0.00 0.00 0.00 100 1016.3
20260507194250 35 78 3.2 17.7 0.00 0.00 0.00 100 1016.4
20260507193749 35 344 6.4 17.7 0.00 0.00 0.00 100 1016.6
20260507193521 35 70 9.7 16.1 0.00 0.00 0.00 100 1016.8
20260507192752 35 60 8.0 16.1 0.00 0.00 0.00 100 1017.1
20260507192251 35 327 6.4 17.7 0.00 0.00 0.00 100 1017.0
20260507192247 35 21 4.8 17.7 0.00 0.00 0.00 100 1017.0
20260507191514 35 50 6.4 22.5 0.00 0.00 0.00 100 1016.9
20260507190743 35 116 4.8 22.5 0.00 0.00 0.00 100 1017.1
20260507190504 35 36 9.7 14.5 0.00 0.00 0.00 100 1017.0
20260507185734 35 91 6.4 16.1 0.00 0.00 0.00 100 1017.0
20260507185230 35 133 6.4 16.1 0.00 0.00 0.00 100 1017.0
20260507184729 35 185 6.4 19.3 0.00 0.00 0.00 100 1016.9
20260507184222 35 112 11.3 19.3 0.00 0.00 0.00 100 1016.7
20260507183716 35 78 6.4 17.7 0.00 0.00 0.00 100 1016.9
20260507183215 35 98 9.7 17.7 0.00 0.00 0.00 100 1016.8
20260507182947 35 309 4.8 14.5 0.00 0.00 0.00 100 1017.5
20260507182441 35 28 6.4 17.7 0.00 0.00 0.00 100 1017.0
20260507181710 35 330 6.4 20.9 0.00 0.00 0.00 100 1017.1
20260507181442 35 351 6.4 20.9 0.00 0.00 0.00 100 1016.9
20260507180704 35 14 8.0 17.7 0.00 0.00 0.00 100 1017.5
20260507180203 35 70 6.4 16.1 0.00 0.00 0.00 100 1017.1
20260507175935 35 358 9.7 16.1 0.00 0.00 0.00 100 1017.0
20260507175202 35 4 8.0 20.9 0.00 0.00 0.00 100 1017.1
20260507174702 35 81 8.0 20.9 0.00 0.00 0.00 100 1017.1
20260507174202 35 21 11.3 19.3 0.00 0.00 0.00 100 1017.1
20260507173702 35 25 3.2 20.9 0.00 0.00 0.00 100 1017.1
20260507173202 35 87 8.0 20.9 0.00 0.00 0.00 100 1017.6
20260507172659 34 28 3.2 17.7 0.00 0.00 0.00 100 1017.6
20260507172158 34 80 9.7 17.7 0.00 0.00 0.00 100 1017.7
20260507171658 34 33 6.4 17.7 0.00 0.00 0.00 100 1017.3
20260507171158 34 139 6.4 16.1 0.00 0.00 0.00 100 1016.9
20260507170658 33 9 9.7 16.1 0.00 0.00 0.00 100 1016.9
20260507170157 33 84 3.2 17.7 0.00 0.00 0.00 100 1016.8
20260507165648 33 358 0.0 17.7 0.00 0.00 0.00 100 1016.8
20260507165414 33 26 6.4 20.9 0.00 0.00 0.00 100 1017.5
20260507164643 33 323 11.3 20.9 0.00 0.00 0.00 100 1017.7
20260507164143 33 22 6.4 17.7 0.00 0.00 0.00 100 1017.1
20260507163643 33 74 3.2 20.9 0.00 0.00 0.00 100 1017.7
20260507163133 33 317 8.0 20.9 0.00 0.00 0.00 100 1017.2
20260507162632 33 43 8.0 17.7 0.00 0.00 0.00 100 1018.1
20260507162130 33 56 3.2 14.5 0.00 0.00 0.00 100 1018.0
20260507161629 33 45 1.6 14.5 0.00 0.00 0.00 100 1018.3
20260507161129 33 334 8.0 14.5 0.00 0.00 0.00 100 1019.0
20260507160629 33 310 0.0 16.1 0.00 0.00 0.00 100 1019.0
20260507160113 33 5 6.4 17.7 0.00 0.00 0.00 100 1018.9
20260507155614 33 74 3.2 17.7 0.00 0.00 0.00 100 1018.8
20260507155342 33 42 0.0 17.7 0.00 0.00 0.00 100 1018.2
20260507154842 33 94 6.4 14.5 0.00 0.00 0.00 100 1018.0
20260507154111 33 99 4.8 19.3 0.00 0.00 0.00 100 1018.2
20260507153612 33 120 9.7 19.3 0.00 0.00 0.00 100 1018.2
20260507153112 33 357 9.7 17.7 0.00 0.00 0.00 100 1018.6
20260507152612 33 358 6.4 16.1 0.00 0.00 0.00 100 1018.3
20260507152110 33 57 4.8 16.1 0.00 0.00 0.00 100 1018.0
20260507151610 33 4 9.7 16.1 0.00 0.00 0.00 100 1018.0
20260507151110 33 347 9.7 17.7 0.00 0.00 0.00 100 1018.2
20260507150609 33 333 11.3 17.7 0.00 0.00 0.00 100 1018.3
20260507150108 33 358 3.2 16.1 0.00 0.00 0.00 100 1018.3
20260507145608 33 310 6.4 14.5 0.00 0.00 0.00 100 1018.3
20260507145108 33 14 4.8 16.1 0.00 0.00 0.00 100 1018.6
20260507144609 33 305 1.6 16.1 0.00 0.00 0.00 100 1018.6
20260507144108 33 330 1.6 12.9 0.00 0.00 0.00 100 1018.6
20260507143103 33 5 6.4 16.1 0.00 0.00 0.00 100 1018.3
20260507142603 33 307 6.4 22.5 0.00 0.00 0.00 100 1018.0
20260507142103 33 333 4.8 22.5 0.00 0.00 0.00 100 1017.7
20260507141543 33 306 6.4 17.7 0.00 0.00 0.00 100 1017.8
20260507141315 33 8 0.0 16.1 0.00 0.00 0.00 100 1018.0
20260507140543 33 56 4.8 17.7 0.00 0.00 0.00 100 1018.0
20260507140043 33 358 12.9 22.5 0.00 0.00 0.00 100 1018.0
20260507135814 33 108 3.2 22.5 0.00 0.00 0.00 100 1017.8
20260507135025 33 354 3.2 17.7 0.00 0.00 0.00 100 1017.6
20260507134523 33 358 9.7 17.7 0.00 0.00 0.00 100 1017.6
20260507134013 33 333 6.4 20.9 0.00 0.00 0.00 100 1017.2
20260507133505 33 358 9.7 20.9 0.00 0.00 0.00 100 1017.2
20260507133002 33 319 6.4 19.3 0.00 0.00 0.00 100 1017.1
20260507132500 33 57 8.0 24.1 0.00 0.00 0.00 100 1017.2
20260507131948 33 7 9.7 20.9 0.00 0.00 0.00 100 1017.2
20260507131944 33 12 12.9 24.1 0.00 0.00 0.00 100 1017.2
20260507130944 33 327 11.3 17.7 0.00 0.00 0.00 100 1017.1
20260507130444 33 35 6.4 17.7 0.00 0.00 0.00 100 1017.1
20260507125943 33 307 9.7 17.7 0.00 0.00 0.00 100 1017.2
20260507125444 33 26 3.2 17.7 0.00 0.00 0.00 100 1017.3
20260507124938 32 4 6.4 19.3 0.00 0.00 0.00 100 1017.3
20260507124438 32 37 3.2 19.3 0.00 0.00 0.00 100 1017.1
20260507124209 32 5 8.0 17.7 0.00 0.00 0.00 100 1017.1
20260507123438 32 21 6.4 17.7 0.00 0.00 0.00 100 1017.2
20260507122938 33 358 8.0 20.9 0.00 0.00 0.00 100 1017.1
20260507122435 33 12 4.8 20.9 0.00 0.00 0.00 100 1017.3
20260507121935 33 0 6.4 19.3 0.00 0.00 0.00 100 1017.2
20260507121435 33 37 11.3 20.9 0.00 0.00 0.00 100 1017.0
20260507121204 33 326 6.4 20.9 0.00 0.00 0.00 100 1016.7
20260507120434 33 358 6.4 16.1 0.00 0.00 0.00 100 1016.7
20260507115934 33 37 0.0 17.7 0.00 0.00 0.00 100 1016.5
20260507115433 33 28 8.0 22.5 0.00 0.00 0.00 100 1016.5
20260507114931 33 30 4.8 22.5 0.00 0.00 0.00 100 1016.5
20260507114423 33 343 9.7 20.9 0.00 0.00 0.00 100 1016.4
20260507113923 33 330 11.3 22.5 0.00 0.00 0.00 100 1016.2
20260507113422 33 73 3.2 22.5 0.00 0.00 0.00 100 1016.4
20260507112923 33 327 9.7 19.3 0.00 0.00 0.00 100 1016.1
20260507112655 33 358 6.4 17.7 0.00 0.00 0.00 100 1016.0
20260507111921 33 358 6.4 17.7 0.00 0.00 0.00 100 1016.0
20260507111421 33 340 6.4 17.7 0.00 0.00 0.00 100 1016.0
20260507110922 33 358 8.0 20.9 0.00 0.00 0.00 100 1016.1
20260507110418 33 324 9.7 20.9 0.00 0.00 0.00 100 1016.2
20260507105918 33 358 4.8 19.3 0.00 0.00 0.00 100 1016.1
20260507105417 33 90 12.9 19.3 0.00 0.00 0.00 100 1016.3
20260507105143 33 15 8.0 17.7 0.00 0.00 0.00 100 1016.3
20260507104412 33 1 4.8 17.7 0.00 0.00 0.00 100 1016.3
20260507103913 33 358 3.2 19.3 0.00 0.00 0.00 100 1016.3
20260507103641 33 333 9.7 19.3 0.00 0.00 0.00 100 1016.1
20260507102911 33 26 4.8 17.7 0.00 0.00 0.00 100 1015.9
20260507102411 33 92 6.4 29.0 0.00 0.00 0.00 100 1015.6
20260507101903 33 32 8.0 29.0 0.00 0.00 0.00 100 1015.6
20260507101635 33 8 4.8 19.3 0.00 0.00 0.00 100 1015.9
20260507100903 33 358 11.3 17.7 0.00 0.00 0.00 100 1015.4
20260507100359 33 329 6.4 16.1 0.00 0.00 0.00 100 1015.7
20260507100130 33 344 8.0 16.1 0.00 0.00 0.00 100 1015.6
20260507095358 33 303 6.4 11.3 0.00 0.00 0.00 100 1015.3
20260507094903 33 336 3.2 16.1 0.00 0.00 0.00 100 1015.8
20260507094859 33 29 4.8 12.9 0.00 0.00 0.00 100 1015.6
20260507093859 33 355 4.8 16.1 0.00 0.00 0.00 100 1015.8
20260507093346 33 73 1.6 14.5 0.00 0.00 0.00 100 1015.7
20260507092844 33 36 6.4 11.3 0.00 0.00 0.00 100 1015.7
20260507092345 33 19 1.6 11.3 0.00 0.00 0.00 100 1015.6
20260507091842 33 2 0.0 8.0 0.00 0.00 0.00 100 1015.6
20260507091327 33 16 1.6 12.9 0.00 0.00 0.00 100 1015.7
20260507090822 33 29 1.6 16.1 0.00 0.00 0.00 100 1015.7
20260507090314 33 5 8.0 16.1 0.00 0.00 0.00 100 1015.3
20260507085814 33 4 1.6 9.7 0.00 0.00 0.00 100 1015.1
20260507085312 34 331 0.0 16.1 0.00 0.00 0.00 100 1015.1
20260507084812 33 316 9.7 16.1 0.00 0.00 0.00 100 1014.9
20260507084303 34 1 3.2 16.1 0.00 0.00 0.00 100 1014.8
20260507083804 34 303 6.4 12.9 0.00 0.00 0.00 100 1014.8
20260507083300 34 337 6.4 11.3 0.00 0.00 0.00 100 1015.0
20260507082801 34 7 0.0 16.1 0.00 0.00 0.00 100 1014.9
20260507082256 34 358 3.2 16.1 0.00 0.00 0.00 100 1014.7
20260507081749 34 327 6.4 12.9 0.00 0.00 0.00 100 1014.9
20260507081519 34 88 4.8 11.3 0.00 0.00 0.00 100 1014.6
20260507080748 34 23 6.4 11.3 0.00 0.00 0.00 100 1014.8
20260507080518 34 45 0.0 8.0 0.00 0.00 0.00 100 1014.6
20260507075744 34 350 0.0 14.5 0.00 0.00 0.00 100 1014.8
20260507075504 34 326 1.6 14.5 0.00 0.00 0.00 100 1014.3
20260507074733 34 147 1.6 16.1 0.00 0.00 0.00 100 1014.3
20260507074233 34 358 0.0 17.7 0.00 0.00 0.00 100 1014.3
20260507073731 34 358 3.2 17.7 0.00 0.00 0.00 100 1014.6
20260507073231 34 71 3.2 14.5 0.00 0.00 0.00 100 1014.7
20260507073006 34 63 4.8 14.5 0.00 0.00 0.00 100 1014.5
20260507072503 35 54 3.2 14.5 0.00 0.00 0.00 100 1014.6
20260507071728 35 40 0.0 14.5 0.00 0.00 0.00 100 1014.2
20260507071231 35 350 3.2 16.1 0.00 0.00 0.00 100 1014.4
20260507071226 35 74 8.0 14.5 0.00 0.00 0.00 100 1014.2
20260507070227 35 338 8.0 16.1 0.00 0.00 0.00 100 1014.5
20260507065725 35 26 8.0 14.5 0.00 0.00 0.00 100 1014.6
20260507065224 35 87 3.2 14.5 0.00 0.00 0.00 100 1014.4
20260507064955 35 56 3.2 12.9 0.00 0.00 0.00 100 1014.5
20260507064830 35 357 1.6 17.7 0.00 0.00 0.00 100 1014.4
20260507063720 35 35 1.6 17.7 0.00 0.00 0.00 100 1014.4
20260507063212 35 70 9.7 16.1 0.00 0.00 0.00 100 1014.3
20260507062658 35 16 8.0 16.1 0.00 0.00 0.00 100 1014.1
20260507062158 35 111 4.8 16.1 0.00 0.00 0.00 100 1014.4
20260507061658 35 47 8.0 16.1 0.00 0.00 0.00 100 1014.6
20260507061158 35 23 9.7 19.3 0.00 0.00 0.00 100 1014.6
20260507060658 35 330 4.8 19.3 0.00 0.00 0.00 100 1014.2
20260507060429 35 63 8.0 14.5 0.00 0.00 0.00 100 1014.3
20260507055658 35 60 1.6 12.9 0.00 0.00 0.00 100 1014.6
20260507055158 35 18 6.4 12.9 0.00 0.00 0.00 100 1014.8
20260507054654 35 14 0.0 14.5 0.00 0.00 0.00 100 1014.7
20260507054149 35 11 6.4 14.5 0.00 0.00 0.00 100 1014.4
20260507053646 35 32 0.0 16.1 0.00 0.00 0.00 100 1014.3
20260507053146 35 43 4.8 17.7 0.00 0.00 0.00 100 1014.4
20260507052646 35 319 6.4 17.7 0.00 0.00 0.00 100 1014.3
20260507052416 35 8 6.4 16.1 0.00 0.00 0.00 100 1014.3
20260507052251 35 358 8.0 16.1 0.00 0.00 0.00 100 1014.3
20260507051144 35 74 3.2 16.1 0.00 0.00 0.00 100 1014.4
20260507050644 35 77 11.3 16.1 0.00 0.00 0.00 100 1014.2
20260507050144 35 358 8.0 17.7 0.00 0.00 0.00 100 1014.2
20260507045644 35 19 6.4 17.7 0.00 0.00 0.00 100 1014.5
20260507045145 35 358 8.0 14.5 0.00 0.00 0.00 100 1014.4
20260507044644 35 52 8.0 12.9 0.00 0.00 0.00 100 1014.3
20260507044144 35 106 3.2 12.9 0.00 0.00 0.00 100 1014.5
20260507043642 35 357 1.6 16.1 0.00 0.00 0.00 100 1014.6
20260507043141 35 68 9.7 16.1 0.00 0.00 0.00 100 1014.4
20260507042640 35 47 6.4 16.1 0.00 0.00 0.00 100 1014.5
20260507042141 35 337 8.0 17.7 0.00 0.00 0.00 100 1014.4
20260507041640 35 358 8.0 17.7 0.00 0.00 0.00 100 1014.2
20260507041140 35 5 0.0 14.5 0.00 0.00 0.00 100 1014.2
20260507040910 35 35 4.8 14.5 0.00 0.00 0.00 100 1014.5
20260507040138 35 11 6.4 14.5 0.00 0.00 0.00 100 1014.5
20260507035637 35 358 6.4 17.7 0.00 0.00 0.00 100 1014.5
20260507035123 35 29 4.8 17.7 0.00 0.00 0.00 100 1014.4
20260507034621 35 258 9.7 16.1 0.00 0.00 0.00 100 1014.3
20260507034351 35 42 1.6 16.1 0.00 0.00 0.00 100 1014.4
20260507033620 35 333 3.2 16.1 0.00 0.00 0.00 100 1014.3
20260507033120 35 337 8.0 12.9 0.00 0.00 0.00 100 1014.4
20260507032620 35 358 6.4 14.5 0.00 0.00 0.00 100 1013.9
20260507032118 35 2 1.6 14.5 0.00 0.00 0.00 100 1014.2
20260507031615 35 49 6.4 12.9 0.00 0.00 0.00 100 1014.1
20260507031116 35 358 0.0 20.9 0.00 0.00 0.00 100 1014.2
20260507030616 35 357 4.8 20.9 0.00 0.00 0.00 100 1014.2
20260507030113 35 351 8.0 19.3 0.00 0.00 0.00 100 1013.9
20260507025612 35 337 6.4 19.3 0.00 0.00 0.00 100 1013.8
20260507025112 35 270 8.0 19.3 0.00 0.00 0.00 100 1013.9
20260507024612 35 344 9.7 16.1 0.00 0.00 0.00 100 1013.6
20260507024343 35 340 6.4 16.1 0.00 0.00 0.00 100 1013.9
20260507023612 35 1 3.2 16.1 0.00 0.00 0.00 100 1013.9
20260507023109 35 313 11.3 16.1 0.00 0.00 0.00 100 1013.6
20260507022609 35 343 6.4 14.5 0.00 0.00 0.00 100 1013.5
20260507022108 35 336 6.4 14.5 0.00 0.00 0.00 100 1013.6
20260507021609 35 14 0.0 14.5 0.00 0.00 0.00 100 1013.4
20260507021337 35 324 11.3 16.1 0.00 0.00 0.00 100 1013.3
20260507020601 35 345 9.7 16.1 0.00 0.00 0.00 100 1013.2
20260507015601 35 37 9.7 19.3 0.00 0.00 0.00 100 1013.2
20260507015101 35 326 9.7 16.1 0.00 0.00 0.00 100 1013.0
20260507014601 35 347 6.4 12.9 0.00 0.00 0.00 100 1012.9
20260507014101 35 18 1.6 12.9 0.00 0.00 0.00 100 1012.9
20260507013545 35 358 3.2 12.9 0.00 0.00 0.00 100 1012.9
20260507013043 35 4 6.4 16.1 0.00 0.00 0.00 100 1012.6
20260507012543 35 30 0.0 16.1 0.00 0.00 0.00 100 1012.4
20260507011548 35 358 4.8 12.9 0.00 0.00 0.00 100 1012.3
20260507011543 35 333 8.0 16.1 0.00 0.00 0.00 100 1012.3
20260507010544 35 358 0.0 9.7 0.00 0.00 0.00 100 1012.2
20260507010045 35 78 4.8 14.5 0.00 0.00 0.00 100 1012.5
20260507005544 35 61 6.4 19.3 0.00 0.00 0.00 100 1012.4
20260507005044 35 317 9.7 19.3 0.00 0.00 0.00 100 1012.2
20260507004544 35 322 11.3 17.7 0.00 0.00 0.00 100 1012.3
20260507004044 35 25 3.2 16.1 0.00 0.00 0.00 100 1011.9
20260507003529 35 26 4.8 17.7 0.00 0.00 0.00 100 1011.9
20260507003258 35 340 0.0 17.7 0.00 0.00 0.00 100 1012.0
20260507002524 35 26 6.4 19.3 0.00 0.00 0.00 100 1011.8
20260507002021 35 94 8.0 19.3 0.00 0.00 0.00 100 1011.7
20260507001522 35 293 3.2 14.5 0.00 0.00 0.00 100 1011.9
20260507001014 35 12 6.4 17.7 0.00 0.00 0.00 100 1011.9
20260507000514 35 15 8.0 17.7 0.00 0.00 0.00 100 1011.8